Wind_Speed
16 16 16 16 15 15 15 14 14 13 13 13 13 14 14 15 15 15 15 15 16 16 16 17 17 17 17 18 19 21 22 22 23 22 21 20 21 20 18 15 15 14 13 13 11 11 11 11 11 10 8 6 4 2 1 3 3 6 8 7 5 4 3 4 10 15 12 11 11 9 9 7 8 9 8 7 8 7 7 5 4 7 6 5 6 6 7 9
17 17 17 16 16 16 15 15 15 14 14 14 14 14 15 15 16 17 17 17 17 17 18 18 18 19 19 19 20 21 23 24 24 23 22 23 23 21 19 17 16 15 14 14 13 13 12 12 12 11 10 7 5 3 2 3 3 4 7 7 6 5 3 4 9 15 14 13 13 10 9 7 6 9 9 8 8 7 6 5 5 6 6 5 6 6 7 8
18 18 17 17 16 16 16 15 15 15 14 14 14 14 15 16 17 17 18 19 19 19 19 20 20 20 20 21 21 22 23 25 26 25 24 24 23 23 21 18 17 16 15 15 14 15 14 14 13 12 11 7 6 5 4 4 3 4 6 6 6 7 6 5 9 17 16 13 13 12 9 7 6 7 9 9 8 6 4 5 6 6 6 6 6 6 7 7
18 18 18 17 17 16 16 16 15 15 15 14 15 15 15 16 17 18 19 20 21 21 21 21 22 22 22 23 23 23 23 25 27 26 26 25 24 24 22 19 18 17 17 16 16 16 16 16 15 14 12 9 8 7 6 5 3 4 7 8 8 8 8 6 8 18 18 14 13 13 11 8 6 6 9 10 9 7 6 5 5 6 7 7 7 6 6 7
19 19 18 17 17 16 16 16 15 15 15 15 15 15 16 17 17 19 20 21 22 23 23 23 23 24 24 25 25 24 24 26 27 27 27 26 25 24 23 21 19 18 18 18 18 17 17 17 16 15 13 12 10 8 7 5 3 4 7 9 10 9 9 6 9 20 19 14 13 13 12 10 7 6 8 10 10 9 8 5 5 6 7 8 8 7 6 7
20 19 18 18 17 17 16 16 15 15 15 15 15 16 16 17 18 19 20 22 23 24 25 25 25 26 26 27 27 27 27 28 28 28 28 28 26 25 25 23 20 20 19 19 19 19 19 18 17 15 14 13 11 9 8 6 3 5 8 9 9 8 9 6 12 20 16 14 17 14 11 10 8 7 8 9 9 9 8 6 6 6 7 8 8 7 7 7
20 20 19 18 18 17 16 16 16 15 15 15 15 16 16 17 18 19 21 22 24 25 26 27 28 28 28 29 29 30 29 29 28 28 29 29 28 27 26 24 22 21 20 19 20 20 20 19 19 17 16 14 12 10 9 8 4 6 9 9 7 6 7 6 14 17 13 16 20 15 9 9 7 8 9 9 8 8 7 5 7 8 7 7 7 7 7 7
21 21 20 19 18 18 17 16 16 16 15 15 15 16 16 17 18 19 21 22 24 26 27 28 29 30 30 31 32 32 31 30 29 29 30 30 29 28 27 26 23 22 21 20 20 21 21 21 20 18 17 16 12 10 11 10 6 7 10 10 6 5 5 7 15 16 14 17 18 15 11 10 8 8 9 10 9 8 8 6 8 9 8 7 6 6 7 7
21 21 21 20 19 18 17 17 16 16 16 16 16 16 16 17 18 19 20 22 24 26 28 29 31 31 32 33 34 33 33 32 30 31 32 31 31 30 28 26 25 23 21 19 20 22 22 21 20 19 17 16 13 12 13 11 8 9 11 9 6 4 4 8 14 17 18 18 17 14 11 12 11 9 9 10 10 9 8 7 8 9 8 8 6 6 6 7
22 22 21 21 20 19 18 18 17 17 16 16 16 16 16 17 18 19 20 21 23 25 27 29 31 33 33 35 35 35 34 34 33 32 34 33 33 32 30 27 26 25 21 20 21 23 23 22 21 19 17 15 14 14 13 11 9 9 9 7 5 2 1 6 12 17 18 19 17 14 13 12 11 10 8 8 8 9 8 7 7 9 9 8 6 6 6 6
22 22 21 21 20 20 19 19 18 17 17 17 17 17 17 17 18 18 19 20 22 23 25 28 30 33 34 35 36 36 36 36 35 34 35 36 35 34 32 29 28 26 23 21 22 23 24 22 21 20 18 16 15 15 14 12 10 9 8 6 3 2 2 5 13 18 18 18 16 15 13 9 8 9 8 8 7 8 8 7 7 8 9 8 7 6 6 6
22 22 21 21 20 20 20 19 19 18 18 18 18 18 18 18 18 18 18 19 19 20 22 24 26 30 32 34 36 37 37 37 36 36 37 37 36 36 35 32 29 27 25 24 24 24 23 21 21 20 19 17 15 15 15 13 11 11 9 6 2 2 1 4 14 20 19 18 16 15 15 11 8 8 9 9 7 8 7 7 7 8 9 8 7 7 6 6
23 22 22 21 21 21 21 20 19 19 19 18 18 19 19 19 18 18 17 17 17 17 18 19 21 24 27 30 34 37 37 37 37 38 39 38 38 38 37 35 31 29 28 26 25 24 21 20 21 21 19 17 16 15 15 13 11 11 9 6 0 3 1 4 12 17 19 20 17 16 16 16 10 6 9 10 8 9 8 7 8 8 10 9 8 7 7 6
23 23 22 22 21 21 21 20 20 20 19 19 19 19 19 19 18 18 17 16 15 16 17 18 20 21 23 26 30 33 35 36 38 38 39 39 39 39 39 37 33 31 29 28 27 25 22 20 19 20 21 20 18 15 14 13 11 10 8 5 2 4 2 3 9 15 18 18 16 15 15 15 9 5 9 10 9 9 9 9 9 9 10 10 9 8 7 6
24 23 23 22 22 22 21 21 21 20 20 20 20 20 19 19 18 17 17 16 16 15 16 17 18 20 22 26 28 30 30 33 37 38 39 39 38 39 40 39 36 33 31 30 28 26 23 20 18 20 22 21 18 16 14 13 12 11 9 6 4 4 3 2 6 13 14 13 16 17 15 13 8 7 9 9 9 9 9 10 9 9 10 11 10 10 9 8
24 24 23 23 23 22 22 21 21 21 21 21 21 20 19 19 18 17 17 16 16 15 15 15 16 16 19 23 27 29 29 30 35 37 39 40 38 37 39 40 39 35 32 31 30 27 23 20 20 20 21 20 18 16 14 13 13 12 10 8 5 4 3 2 2 7 8 9 15 16 14 11 9 8 10 9 9 9 9 9 10 10 10 10 11 10 10 9
24 24 23 23 23 22 22 22 22 22 22 21 20 20 19 18 17 16 16 16 15 15 15 15 15 15 16 17 21 25 27 28 31 35 38 40 39 37 37 39 40 38 35 33 31 28 24 22 22 20 20 20 18 16 14 13 13 12 10 9 6 4 3 1 1 2 5 7 11 14 13 11 10 10 10 10 10 9 10 10 10 11 10 10 10 10 9 10
24 23 23 23 23 23 23 23 22 22 22 21 20 19 18 17 16 15 15 15 15 16 16 16 16 15 14 14 16 18 22 24 28 32 35 38 39 38 36 37 40 40 38 35 33 30 26 25 25 24 23 21 18 16 15 14 13 12 11 9 7 6 4 2 0 1 4 6 10 13 13 12 13 12 11 11 11 11 11 12 12 11 11 10 9 10 9 10
23 23 23 23 23 23 23 23 23 22 22 21 20 19 18 16 15 14 14 14 14 15 16 16 15 15 13 12 12 14 18 22 26 29 32 36 38 36 36 35 37 40 39 36 34 31 29 28 28 27 24 21 18 17 18 16 14 13 11 10 8 7 5 4 2 3 4 5 8 11 14 16 15 14 14 13 12 13 13 13 13 11 11 10 9 9 9 10
23 23 23 24 24 24 23 23 23 22 21 20 19 18 17 16 14 13 12 12 13 14 15 15 15 14 11 9 10 13 15 19 22 24 28 33 34 33 35 35 35 37 38 37 36 33 32 31 28 25 22 21 20 21 20 17 15 13 11 11 10 7 6 5 4 4 5 4 5 8 12 17 18 16 17 15 12 13 15 15 14 13 12 11 10 9 9 10
22 23 23 24 24 24 24 24 23 22 21 20 19 18 17 15 13 11 11 11 13 13 13 13 12 12 9 7 7 11 14 16 18 21 24 29 31 31 33 34 33 33 36 38 38 36 34 31 27 23 21 20 21 22 21 18 16 14 11 10 10 8 6 5 4 5 7 6 5 7 9 14 18 19 19 18 14 13 14 15 15 14 13 12 11 9 9 9
22 23 23 24 24 24 24 24 23 22 21 20 18 17 15 13 10 10 10 11 12 11 10 9 9 9 7 5 5 8 11 13 15 18 22 26 28 29 31 32 31 31 34 38 38 37 35 31 28 25 23 22 22 21 19 17 16 15 12 8 9 10 7 5 5 6 8 9 9 9 8 9 15 21 22 20 18 15 14 15 14 14 14 13 12 11 10 9
22 23 23 24 24 24 24 22 22 21 20 18 17 16 14 10 9 8 8 8 9 9 7 7 7 8 7 5 5 6 9 11 13 16 20 23 24 26 28 29 30 31 32 35 36 36 34 31 28 26 25 24 23 21 20 19 17 15 12 7 8 10 9 7 7 8 9 10 12 11 9 8 11 19 24 23 21 19 16 16 16 15 14 15 14 13 13 12
21 22 23 24 23 23 22 22 21 21 20 18 17 16 14 10 8 7 5 6 7 6 4 4 5 6 5 4 5 6 8 10 12 14 18 21 22 23 26 28 30 30 30 32 33 33 32 32 30 28 26 25 24 24 23 21 18 14 11 10 10 11 11 9 8 8 8 10 13 13 11 10 9 13 22 26 25 22 20 18 18 17 16 16 15 14 14 14
21 21 22 23 23 24 23 23 23 22 22 20 17 14 12 9 7 6 5 6 7 5 2 3 2 3 2 3 5 6 8 10 11 13 16 20 21 23 26 27 28 29 28 29 30 31 33 33 33 31 28 26 26 25 24 22 20 17 15 14 13 11 10 9 9 9 8 9 12 14 12 11 11 10 18 26 29 25 22 21 19 19 18 17 16 14 14 15
20 21 21 22 23 23 24 24 23 22 20 19 16 13 11 8 6 6 6 6 7 6 4 2 3 3 2 1 2 4 6 8 10 12 15 19 20 22 25 26 27 28 28 28 28 30 32 32 33 33 30 27 26 25 24 23 20 18 19 18 16 15 12 9 10 9 10 11 11 12 12 11 9 7 10 18 28 26 22 22 21 20 19 17 17 15 14 15
19 20 20 21 22 22 22 21 20 19 17 17 16 14 13 10 10 11 10 10 10 8 6 6 6 5 4 3 2 1 3 6 9 12 15 19 21 20 22 26 28 29 29 29 28 28 28 29 31 34 32 29 26 25 24 23 20 19 21 20 18 16 12 9 11 11 11 12 11 11 10 10 8 5 3 7 18 21 20 21 21 21 20 18 17 16 15 15
19 19 19 19 20 20 19 19 18 17 17 17 16 15 14 13 15 15 12 12 13 10 9 9 8 7 4 3 4 3 1 5 7 11 15 17 20 21 21 26 29 28 28 28 27 27 25 24 26 31 33 31 28 26 24 23 20 19 19 18 17 13 9 10 12 13 14 13 11 10 9 8 7 6 4 4 9 12 14 18 22 23 22 19 18 17 16 15
19 18 18 18 18 18 18 17 17 17 16 17 16 16 15 15 18 16 12 11 13 12 12 10 9 8 6 5 5 4 2 5 5 7 13 16 19 20 20 24 28 27 26 25 27 28 26 24 24 28 32 31 29 26 23 22 19 18 18 16 15 13 12 14 13 13 14 12 11 10 10 9 7 5 4 4 6 7 8 13 21 26 25 22 20 17 16 16
18 18 17 17 17 17 17 16 16 15 15 16 16 15 15 16 17 15 13 13 13 13 13 10 9 9 5 5 7 8 7 7 7 5 11 15 17 19 19 22 26 26 25 24 26 27 26 25 26 28 30 31 31 28 26 24 19 18 21 17 15 17 17 15 15 15 13 11 10 10 11 12 10 7 4 4 6 7 6 7 16 28 28 23 20 18 16 16
18 17 16 16 16 16 16 15 15 15 14 14 14 13 14 15 14 12 12 13 11 11 12 11 14 11 5 6 11 12 11 10 9 7 10 13 16 18 19 21 24 23 23 23 24 27 27 26 25 27 30 31 31 31 31 29 21 18 22 20 17 17 17 17 17 16 13 10 10 8 9 11 12 12 9 6 5 7 7 6 6 21 26 20 17 17 16 16
18 17 16 15 15 15 15 15 15 14 13 12 13 13 14 14 12 11 12 11 10 11 14 12 14 15 12 13 19 18 13 11 11 8 9 12 15 18 18 20 22 22 24 24 25 30 31 28 27 27 29 29 29 31 34 32 26 22 22 22 21 19 19 20 19 17 16 13 11 8 7 8 11 13 13 9 5 5 7 4 1 11 17 16 16 17 16 16
17 17 15 13 13 13 13 14 13 12 11 11 12 13 13 12 11 12 11 9 7 10 14 12 10 14 14 14 21 21 12 10 11 8 11 15 17 16 16 19 21 21 24 25 26 31 32 30 29 28 28 28 27 28 32 33 31 29 25 22 23 22 22 23 22 22 21 18 14 11 9 9 9 12 12 10 6 4 5 6 5 8 11 14 17 19 19 18
17 17 15 13 12 11 11 12 12 12 11 10 11 12 11 10 11 11 7 5 3 6 11 10 9 12 11 12 17 17 9 7 7 8 13 17 18 17 16 17 18 19 23 24 24 29 29 28 29 28 26 25 24 23 27 33 34 33 31 26 23 22 19 18 19 20 19 16 17 15 11 11 11 11 12 11 7 4 3 5 7 10 12 14 17 22 23 20
17 16 15 12 11 10 9 10 11 11 10 10 10 11 11 10 10 9 4 2 2 5 10 10 11 12 9 11 14 11 7 7 6 12 17 20 21 20 19 18 15 18 21 18 18 23 24 22 22 23 22 20 19 20 26 33 34 33 34 31 25 21 19 17 16 17 17 16 18 16 12 12 12 11 11 10 9 7 6 6 7 11 15 16 17 21 25 23
17 16 14 12 10 10 9 9 10 11 10 10 10 9 9 10 12 10 7 4 3 9 13 12 11 9 5 9 11 6 5 6 5 13 20 22 21 20 20 16 12 17 21 17 15 20 21 20 21 23 21 18 17 20 27 32 32 31 32 29 24 21 20 21 21 21 20 19 18 15 12 12 12 10 8 8 8 8 8 7 7 9 13 14 14 17 25 25
17 15 14 12 10 10 9 8 10 11 10 10 9 8 8 9 14 14 10 7 6 13 14 10 9 10 7 7 6 3 4 4 5 11 18 21 20 21 21 15 11 17 21 18 17 22 23 21 22 24 22 18 16 19 25 32 31 30 29 26 23 22 22 24 25 24 21 19 16 13 11 10 11 9 7 8 8 7 8 8 8 9 10 10 9 14 24 24
18 15 13 12 11 10 9 8 10 13 12 11 8 7 6 7 13 15 11 6 5 11 12 9 9 10 8 7 8 5 4 3 4 7 11 15 20 24 22 17 15 19 21 20 20 22 23 20 18 23 22 17 15 17 25 32 33 31 29 25 24 23 23 25 25 22 20 18 14 10 8 8 9 9 9 10 10 9 9 9 10 10 8 8 8 15 23 23
18 16 13 12 11 11 10 9 11 13 12 10 7 6 6 5 10 12 9 4 3 10 11 9 9 10 11 10 8 6 5 5 5 6 8 9 16 23 22 18 19 22 22 22 23 22 24 24 20 22 24 18 15 18 25 32 32 31 30 27 25 25 27 26 23 19 18 16 13 9 7 5 6 8 9 9 10 10 11 11 12 11 9 7 8 16 22 22
18 17 14 12 11 12 11 9 13 14 11 9 6 6 6 5 8 9 8 6 1 10 13 11 10 11 13 11 7 5 8 8 6 8 11 11 15 22 23 21 22 25 24 24 25 25 27 28 22 21 24 20 15 18 26 31 31 29 29 27 25 25 28 28 25 22 19 16 14 10 8 6 5 6 8 8 10 11 12 13 12 11 10 9 10 15 20 22
17 16 16 14 11 12 12 12 15 14 12 10 7 6 4 3 5 7 7 8 5 5 13 14 11 10 11 12 10 8 10 10 7 10 12 12 16 19 21 24 25 26 27 25 26 28 28 27 24 23 27 24 18 21 29 33 32 29 27 25 24 22 24 27 25 22 20 16 13 12 12 10 8 7 7 8 9 10 11 12 12 11 12 11 12 15 18 20
16 15 15 15 12 11 13 15 16 13 10 9 8 6 3 1 3 5 6 7 7 2 6 11 13 10 11 13 12 11 12 11 9 11 13 13 15 16 17 21 21 22 26 27 28 29 28 27 25 25 27 26 24 25 31 34 34 32 27 23 23 21 21 24 20 14 14 14 15 16 16 14 13 11 10 9 9 8 9 10 10 11 11 12 13 15 17 19
17 15 15 15 13 11 13 16 16 12 9 8 7 3 1 2 3 4 5 6 6 6 5 5 10 11 14 16 14 12 14 13 12 12 13 14 14 15 16 19 18 18 23 27 28 31 30 28 27 26 25 25 25 26 31 35 35 34 30 27 28 26 23 22 19 16 15 16 18 20 19 16 16 15 13 13 11 9 9 9 9 11 11 12 13 15 18 19
17 17 16 15 13 13 14 15 15 13 9 8 7 3 2 5 6 5 5 6 5 7 8 3 5 9 16 21 19 17 17 16 14 15 16 16 14 13 16 18 16 16 21 26 30 33 34 30 27 25 24 24 24 23 28 36 37 35 32 31 33 32 28 25 23 22 21 19 19 21 20 19 19 18 17 16 15 13 12 11 10 11 11 11 13 16 19 21
17 17 16 15 13 13 14 16 16 12 9 8 6 5 5 7 8 8 7 5 5 6 7 4 3 5 11 18 20 20 20 17 16 17 18 17 15 15 15 14 14 13 17 25 30 33 34 32 29 28 27 27 25 21 24 34 39 35 33 34 34 33 31 29 29 27 25 23 21 22 22 21 21 21 20 20 18 16 15 14 14 13 11 12 13 15 17 20
17 16 15 15 14 13 14 16 16 12 8 8 7 7 9 8 7 8 9 7 4 5 5 4 3 5 7 12 15 17 18 15 14 16 17 16 15 14 12 11 12 12 15 20 26 30 32 32 31 31 31 29 27 25 25 31 36 33 33 35 35 34 33 32 32 30 28 26 24 25 26 25 24 24 24 23 22 19 17 17 17 14 12 13 15 17 19 20
16 15 14 15 15 14 13 14 15 12 9 8 7 8 11 11 8 9 10 8 4 3 5 4 5 5 5 9 10 11 12 10 10 13 14 15 16 14 12 10 12 14 16 18 22 27 31 31 30 31 32 30 27 28 28 29 33 33 33 34 35 37 38 36 34 32 30 28 28 29 30 29 29 27 25 25 24 21 18 18 17 15 13 13 15 17 19 19
16 15 16 16 15 14 13 12 13 12 7 5 5 7 9 11 13 12 8 5 5 4 7 7 6 5 4 5 7 7 9 7 7 8 7 9 12 14 13 10 10 13 15 17 19 23 28 32 32 31 32 31 29 29 31 32 34 35 33 33 33 33 37 39 37 35 34 31 30 31 32 32 32 29 26 26 25 23 20 18 16 15 15 14 15 16 16 17
16 16 17 17 16 16 14 13 14 12 7 3 6 8 9 12 15 14 9 6 5 6 9 10 7 5 4 3 4 6 8 7 6 6 6 6 9 11 12 11 10 12 14 16 18 20 23 28 33 32 31 31 30 31 32 31 34 38 37 35 33 29 31 36 37 36 36 36 34 33 33 33 34 32 29 28 27 25 23 21 18 15 14 16 18 17 16 18
16 16 17 16 16 17 16 15 15 12 9 6 9 10 10 14 16 14 12 10 8 8 10 10 9 7 4 4 4 5 6 6 7 7 6 5 8 11 11 11 12 13 15 15 17 20 22 24 29 33 33 33 32 33 32 29 31 38 42 39 35 31 31 34 35 35 37 38 37 36 34 34 35 35 34 32 30 29 27 25 23 20 18 18 19 18 17 17
16 16 16 15 16 16 17 16 14 13 14 12 12 13 13 15 16 14 12 13 12 12 12 9 10 10 5 3 6 5 5 6 7 8 6 4 7 8 9 11 13 14 15 14 13 17 21 22 24 29 33 36 37 36 35 33 33 38 42 41 35 32 34 37 37 37 36 36 36 36 36 37 37 37 35 34 33 32 31 29 28 27 26 24 23 21 19 17
17 16 16 15 15 16 17 17 16 18 18 15 13 16 16 15 14 13 14 14 13 14 13 11 13 13 6 4 6 5 4 5 6 7 7 7 8 7 8 12 13 12 13 12 11 14 18 21 22 25 30 35 39 40 39 37 38 40 42 41 37 33 36 38 38 37 35 33 34 35 35 36 38 39 37 35 34 33 32 30 27 26 28 30 29 26 22 20
Wind_Direction
335 333 330 326 322 317 312 306 301 296 290 282 274 267 264 262 259 257 253 250 246 244 242 240 237 235 231 227 225 222 219 219 220 223 224 227 229 231 230 222 223 222 221 221 213 215 219 212 213 221 226 228 229 195 232 282 357 353 340 346 343 338 347 306 244 212 185 160 158 158 150 147 135 133 142 125 115 118 112 107 104 96 85 80 85 85 88 85
334 331 327 323 318 313 307 302 297 292 287 282 275 269 263 260 257 256 254 251 247 244 242 241 239 237 235 231 227 224 221 220 220 221 223 226 229 230 229 225 224 222 220 220 213 212 216 215 215 220 225 227 234 232 261 299 352 339 325 326 324 317 298 300 250 214 188 166 160 159 155 156 148 141 146 133 126 125 114 123 124 110 100 87 84 87 88 84
333 330 327 323 317 311 306 301 296 291 286 281 276 271 265 260 256 254 253 251 248 244 242 240 239 238 237 235 231 226 223 221 221 220 222 225 228 230 229 225 224 222 219 218 215 212 212 214 215 220 227 229 234 242 256 282 307 295 298 303 314 301 274 283 237 205 185 173 164 157 156 159 154 142 141 137 135 123 108 129 130 122 114 98 88 87 85 82
333 331 328 323 318 312 307 302 297 293 288 282 277 272 267 262 257 253 251 250 248 246 243 240 238 238 238 237 235 231 226 223 222 220 221 224 226 229 228 225 223 222 219 216 216 216 215 214 215 219 224 227 233 241 252 269 289 305 305 298 308 301 273 273 222 199 188 183 168 155 159 159 154 146 141 143 144 133 124 131 128 128 123 110 100 90 79 75
334 332 329 325 321 316 311 306 301 297 291 286 280 274 269 264 260 256 251 249 247 246 245 241 238 236 236 237 236 235 230 225 223 220 220 222 224 227 228 224 222 221 219 216 215 217 218 217 217 219 222 226 233 239 252 266 287 310 306 301 313 310 276 260 204 199 196 184 164 160 164 155 152 158 148 150 150 140 137 139 133 127 122 115 108 100 83 74
334 333 331 329 325 321 315 311 305 301 296 290 284 279 274 268 263 259 255 251 248 246 245 243 239 236 234 235 235 235 232 227 225 222 220 220 223 225 227 225 221 221 220 217 216 216 217 218 218 220 223 227 233 237 250 261 279 289 289 302 315 306 283 254 195 200 203 177 162 167 169 150 154 165 154 156 152 140 139 141 136 127 118 115 110 106 92 79
334 333 332 330 328 324 320 315 310 305 300 295 289 283 278 273 268 262 258 255 251 247 245 244 241 237 234 233 233 233 232 230 227 224 221 220 221 224 226 225 220 220 221 217 216 217 217 218 217 218 221 226 231 237 250 252 257 270 276 295 307 314 307 242 193 198 198 173 166 171 168 148 157 163 155 159 157 146 142 143 139 130 121 115 111 107 97 85
332 330 329 328 327 326 323 319 315 310 305 300 294 288 283 278 272 267 262 258 255 251 248 245 243 240 236 232 231 231 232 232 228 225 223 219 219 222 224 224 220 219 220 217 216 217 218 217 219 220 222 225 227 233 246 247 246 257 268 289 306 338 320 220 194 189 178 172 175 177 167 156 162 156 153 162 163 154 147 146 142 134 126 118 111 106 99 92
330 328 326 325 325 325 324 322 319 314 310 305 300 294 288 282 277 272 267 262 257 254 251 248 246 243 240 235 231 230 232 231 228 226 224 220 217 218 221 222 219 217 216 214 215 218 219 217 218 220 223 227 223 223 242 248 247 253 265 289 310 339 300 222 193 177 169 175 186 187 171 161 163 153 157 171 164 155 150 150 147 139 130 123 117 107 103 100
330 328 326 324 324 324 324 322 320 317 313 310 306 301 295 288 283 276 271 267 262 257 254 250 248 245 243 239 234 231 230 229 228 225 224 221 217 215 217 219 218 216 212 209 212 217 219 217 216 216 217 225 223 220 235 244 240 245 259 281 314 346 243 228 200 177 173 181 181 179 172 161 157 145 157 182 167 154 151 153 153 144 135 129 128 118 109 109
332 330 328 326 325 325 324 322 320 319 316 314 311 307 301 295 288 282 276 271 267 262 258 254 251 248 246 244 238 233 229 228 227 225 225 223 218 215 215 216 217 215 210 207 210 216 218 216 215 212 211 217 222 221 226 230 229 237 250 264 332 30 186 225 203 181 174 176 167 173 182 169 154 144 163 191 174 157 153 157 162 150 140 138 140 130 120 122
335 333 331 329 328 327 325 323 322 321 319 317 315 311 306 300 293 288 282 277 272 267 262 258 255 252 250 248 244 238 231 228 228 226 224 223 220 216 214 213 214 213 210 207 210 215 217 215 213 210 208 211 218 221 221 223 226 233 241 248 359 41 261 225 196 182 174 174 169 179 187 180 170 154 172 195 178 165 164 165 170 158 151 149 150 141 131 135
337 336 334 333 331 329 327 326 324 323 322 320 317 313 308 303 297 292 286 280 275 270 266 262 259 256 255 252 248 243 235 229 229 227 224 223 220 217 214 212 212 212 211 209 209 212 213 213 212 209 204 204 210 215 219 220 223 230 237 238 105 60 347 212 193 185 177 176 175 178 180 179 179 160 170 189 183 172 171 173 173 167 165 160 156 152 144 145
338 337 336 335 333 331 330 328 327 326 325 323 320 317 312 307 301 294 287 282 278 273 268 264 262 260 258 257 253 248 241 232 230 229 225 223 221 218 215 213 212 211 211 211 210 209 209 209 210 208 202 200 202 205 213 216 213 219 229 223 138 80 81 185 203 192 175 171 171 171 177 180 181 167 168 182 190 181 175 177 176 175 176 166 163 165 155 148
339 338 337 336 335 334 332 330 329 328 328 326 324 321 317 311 303 295 288 284 281 275 269 266 264 262 260 259 256 253 247 237 232 229 227 225 223 219 217 214 213 211 211 212 211 209 207 206 209 209 204 201 199 197 203 210 209 209 211 198 147 112 103 105 198 191 174 170 170 172 182 184 183 175 169 181 191 185 181 181 177 179 184 173 170 176 162 150
339 338 338 338 337 336 334 333 332 331 331 329 327 325 320 314 306 298 290 286 282 274 269 268 267 270 267 261 257 253 249 241 233 229 226 226 225 221 218 215 214 212 211 212 212 209 206 205 209 210 206 202 196 194 199 205 206 204 206 205 176 139 127 89 158 185 183 181 179 183 188 185 187 184 174 180 189 186 183 186 181 180 189 181 174 179 168 152
339 339 339 339 339 338 337 336 335 335 334 332 331 328 323 317 311 303 295 287 280 272 269 270 273 279 280 271 261 253 247 241 235 229 225 225 226 223 219 216 214 214 211 211 212 208 204 208 211 207 205 204 193 188 197 204 205 206 214 216 192 157 157 142 107 193 212 209 203 202 195 190 193 191 186 182 184 187 187 193 190 183 190 189 177 177 172 157
339 340 341 341 341 340 340 339 338 337 336 335 333 330 325 319 315 309 301 290 279 272 271 275 279 284 288 281 268 255 246 238 233 228 222 223 226 224 220 216 214 214 212 211 211 208 204 210 212 204 203 202 190 186 197 203 206 211 219 222 203 181 182 192 235 271 235 231 229 210 192 198 204 195 194 188 180 183 190 199 198 190 192 190 180 176 171 161
339 341 343 343 343 343 342 341 340 340 339 337 334 332 326 320 317 312 304 293 282 275 275 278 281 283 290 286 267 252 244 236 231 227 220 220 224 223 221 218 214 213 213 212 212 209 206 211 213 207 203 200 192 192 200 201 203 208 213 219 215 200 198 211 237 289 273 240 241 222 194 202 213 200 195 197 186 181 188 200 200 195 195 190 182 176 169 162
340 342 345 345 345 345 344 344 343 343 341 338 336 333 328 324 320 312 305 298 288 281 279 281 280 279 288 288 261 243 239 234 230 226 219 217 221 221 218 217 214 212 212 211 212 209 208 212 215 211 207 205 201 199 202 201 200 205 210 216 221 214 206 222 232 258 276 266 266 252 217 212 216 202 199 205 200 187 185 195 200 198 198 194 186 178 172 162
341 344 346 347 347 346 347 347 346 345 343 341 337 334 333 330 324 319 316 306 297 290 285 283 280 278 291 299 265 243 237 231 227 224 218 216 217 217 215 215 213 210 210 211 211 209 209 211 212 211 209 210 210 206 205 206 203 203 207 216 229 228 215 232 249 254 265 273 281 270 247 229 216 204 206 213 213 201 187 189 199 201 200 198 190 183 181 167
342 345 347 349 349 348 350 350 349 347 345 343 339 338 339 335 335 334 321 311 308 304 297 295 286 277 283 292 269 248 241 232 225 219 214 214 215 212 211 212 210 209 209 210 210 210 210 210 209 209 209 211 214 211 210 212 208 204 204 215 237 235 223 229 247 253 256 260 263 264 265 250 224 211 211 214 217 214 195 186 194 203 205 203 195 187 188 178
342 345 347 350 351 350 352 351 351 350 348 347 346 347 345 347 356 349 330 326 330 325 318 311 287 268 262 264 260 249 241 231 223 218 210 209 211 209 206 205 205 207 209 209 209 209 210 211 209 209 209 212 215 213 211 214 212 206 200 205 231 231 223 225 238 247 252 252 255 266 278 274 242 222 218 218 219 216 203 192 192 198 205 208 203 191 190 190
342 344 347 350 351 352 353 353 354 355 355 356 357 353 349 0 15 6 11 15 356 339 313 288 270 264 260 257 253 244 237 226 218 216 211 205 203 203 202 200 200 203 208 209 207 205 206 208 208 208 208 211 216 215 213 213 211 206 198 198 215 221 219 226 238 244 255 258 256 267 278 284 281 245 227 222 219 214 208 202 196 197 201 207 210 201 194 197
341 343 348 350 351 352 353 355 358 0 2 2 4 1 357 11 22 16 52 46 2 346 301 261 272 294 281 252 245 238 233 223 212 211 208 201 196 195 194 195 197 198 202 206 204 201 203 205 206 205 204 207 214 217 217 216 213 210 207 208 215 217 218 231 243 248 263 267 265 271 275 286 297 267 238 225 217 213 211 207 202 202 201 203 211 209 203 203
340 343 348 351 352 354 355 359 1 2 3 1 1 5 6 16 18 15 43 33 358 357 358 344 2 12 34 23 275 247 232 214 207 208 201 194 191 192 192 190 191 193 195 198 199 199 201 204 206 206 202 203 211 217 219 218 214 215 217 218 221 221 223 243 254 259 270 269 273 280 278 286 292 264 249 230 217 214 215 214 211 208 205 202 208 209 205 206
338 341 347 351 354 356 358 0 0 1 2 359 359 3 4 8 15 15 13 9 9 15 21 29 31 34 56 70 84 190 226 200 199 207 199 190 184 185 192 189 184 187 190 192 193 194 198 201 206 208 203 199 204 211 216 214 211 217 225 226 226 225 229 250 258 256 264 267 273 282 278 281 279 253 254 221 210 215 222 226 226 220 211 203 204 206 204 206
336 340 346 351 355 357 359 359 358 1 3 0 0 3 2 5 15 13 1 8 26 33 31 37 37 40 61 85 92 75 140 175 182 197 195 189 181 178 188 190 184 185 189 192 190 185 187 193 203 209 205 200 200 204 210 211 207 210 220 227 227 226 233 242 247 250 255 261 268 274 270 266 266 251 234 180 193 215 230 236 234 227 220 208 203 204 202 204
334 338 344 350 355 356 357 357 359 4 5 1 1 4 4 7 13 11 7 23 41 44 33 24 24 37 54 72 81 70 99 145 142 176 186 184 178 175 183 188 185 184 185 188 187 180 178 181 190 200 200 197 196 197 199 197 194 194 198 212 216 210 220 230 237 248 251 252 258 264 259 249 250 253 249 220 208 219 243 245 233 225 221 211 203 201 200 202
332 335 341 349 354 355 356 357 358 4 7 2 0 5 8 6 3 4 21 44 50 45 36 29 33 41 46 64 83 95 101 103 93 135 173 178 177 173 175 181 182 183 181 181 186 185 182 180 184 192 192 192 193 188 183 177 175 186 191 196 204 206 211 216 221 232 238 243 246 252 254 247 240 240 261 278 250 238 261 276 241 224 216 207 203 202 199 200
331 333 339 346 352 354 354 353 357 6 9 2 360 8 10 360 351 358 32 56 51 39 45 59 60 54 57 53 53 65 76 82 87 115 157 168 172 170 169 177 182 180 173 173 181 182 178 178 182 187 188 192 196 186 175 172 171 185 194 194 202 211 213 209 213 222 230 238 237 244 260 254 243 242 252 275 278 258 265 314 259 215 207 206 209 207 203 200
331 331 336 343 351 354 350 350 358 6 7 0 2 13 6 346 345 11 41 53 44 42 45 57 67 61 60 50 35 35 50 70 83 108 150 150 154 161 163 171 174 166 159 163 171 172 173 179 184 186 185 191 197 189 181 180 178 183 194 200 206 210 212 213 217 224 234 242 238 242 261 256 246 245 244 244 265 275 260 280 234 192 198 211 219 218 214 207
331 330 333 339 349 352 348 349 354 356 0 358 2 13 1 336 351 28 58 64 54 63 49 35 58 64 58 44 25 24 38 60 70 109 148 135 139 153 157 164 165 158 159 164 169 172 176 183 185 186 188 193 197 192 187 185 183 185 191 200 211 214 215 220 224 228 235 243 243 239 242 243 246 250 246 240 253 283 260 243 220 201 211 223 226 225 222 215
331 329 331 335 342 348 346 344 340 342 354 356 359 7 353 340 7 30 69 86 45 77 67 46 53 54 51 44 25 17 28 48 66 120 138 132 139 146 147 160 164 157 163 169 172 175 179 186 189 188 191 198 199 189 186 190 191 194 196 199 208 216 218 221 225 230 235 244 247 241 237 235 238 249 251 247 254 280 278 246 228 222 228 233 235 231 224 217
332 329 329 331 335 338 336 334 328 332 343 345 354 2 347 351 24 26 30 61 38 83 85 81 69 47 34 46 35 22 34 49 87 126 131 134 144 146 146 158 166 162 164 164 170 177 179 185 189 186 187 196 199 185 182 193 200 204 209 209 205 208 215 215 219 229 234 242 248 244 237 231 229 240 248 244 255 270 277 266 240 231 232 239 249 240 224 215
332 330 327 325 325 325 326 326 320 318 326 332 346 0 350 3 33 31 17 29 110 113 95 89 81 64 55 64 53 34 41 51 100 131 135 139 146 151 155 161 168 169 165 152 158 175 176 173 173 173 176 182 194 191 185 193 202 208 215 214 203 200 208 210 217 230 237 242 248 243 232 223 222 235 245 242 249 258 259 258 244 239 237 244 259 240 217 209
332 329 325 321 318 316 317 317 307 304 311 322 339 360 3 17 31 32 36 49 119 131 115 105 97 90 97 105 99 65 36 72 132 141 145 151 156 160 164 170 172 168 164 157 167 177 172 167 168 168 168 173 188 195 190 194 204 210 212 209 202 201 203 204 211 222 229 234 240 238 227 220 222 231 238 237 237 237 240 238 231 234 235 242 249 215 203 204
332 327 323 319 313 307 306 306 300 298 305 320 340 351 352 28 35 33 43 61 141 151 134 126 120 110 113 128 129 112 68 103 158 163 159 163 168 169 173 179 179 173 169 168 175 178 170 165 169 169 169 177 190 191 188 193 201 208 208 204 201 201 201 203 209 215 220 223 222 218 212 219 229 228 228 232 232 228 222 217 216 219 220 228 219 194 196 203
331 325 320 315 307 299 300 303 297 291 296 315 327 311 310 15 37 32 31 27 179 168 156 156 165 156 145 138 134 140 154 169 195 198 193 189 181 181 185 187 184 182 180 176 173 168 163 161 166 172 171 173 183 185 187 194 200 205 206 207 205 199 197 202 209 217 224 226 221 211 199 218 239 228 223 229 230 227 219 213 214 211 206 207 194 190 199 206
330 322 316 314 307 298 298 293 285 283 294 314 303 281 303 7 30 25 19 6 94 175 180 187 192 180 165 161 165 173 179 189 216 213 212 214 193 189 192 190 189 189 188 183 174 166 165 165 166 169 165 159 165 180 187 192 200 204 205 206 203 196 197 201 206 213 220 225 229 221 200 211 239 226 220 226 226 226 222 218 217 212 207 201 185 186 197 206
327 321 314 314 308 298 299 291 283 290 314 323 291 257 281 7 28 17 6 7 22 183 198 207 206 184 176 189 195 194 189 193 225 233 227 216 194 190 195 193 194 195 191 187 179 172 169 170 171 168 162 158 165 182 187 187 191 196 198 201 197 191 196 201 203 211 218 222 229 225 208 206 216 212 210 217 214 218 224 221 218 216 211 206 197 191 194 202
324 319 313 311 307 299 294 286 285 296 317 313 280 246 248 326 359 346 341 2 17 345 223 223 226 203 187 200 204 206 204 197 216 237 241 227 200 192 199 200 202 200 193 189 185 180 173 171 175 176 172 169 169 181 188 187 186 187 186 193 195 192 197 198 193 193 201 209 220 225 220 211 209 212 213 212 205 206 219 221 218 220 217 215 215 209 206 208
319 316 312 309 304 292 278 277 285 296 303 301 289 261 208 277 284 285 315 346 356 343 335 258 237 215 201 207 206 206 213 213 216 226 240 241 217 201 206 208 204 200 196 193 189 185 180 175 178 181 181 178 173 179 190 190 186 183 184 191 195 195 194 190 180 170 178 196 210 220 225 219 213 220 223 219 211 202 207 214 217 221 221 221 222 219 219 220
316 315 317 315 308 295 279 275 281 287 292 304 312 310 247 260 270 266 289 320 328 341 355 337 237 209 202 210 212 213 220 225 223 222 232 243 237 225 225 218 206 198 198 198 194 190 185 181 182 181 178 180 180 180 188 191 188 187 192 197 197 195 191 184 180 179 186 198 206 213 223 223 219 224 228 225 218 207 202 203 205 210 214 217 218 219 220 221
316 319 320 317 314 307 295 286 282 279 284 297 305 301 276 265 273 272 265 279 303 333 354 353 268 234 214 214 217 221 232 237 233 228 231 237 235 232 235 228 213 203 198 200 199 195 189 185 185 183 178 181 186 181 181 188 192 198 205 205 199 195 191 186 185 186 192 201 205 211 219 223 221 222 224 225 221 214 209 204 201 203 212 218 220 224 229 229
318 322 316 310 308 307 304 297 291 284 277 278 274 277 290 291 275 259 252 252 269 308 335 339 296 282 251 236 231 231 242 251 247 239 234 230 225 226 230 220 205 199 197 199 201 200 197 190 184 183 181 179 182 184 182 182 188 200 210 210 206 201 195 192 190 191 197 203 206 210 215 219 223 222 221 223 220 217 217 214 209 207 213 222 223 225 231 235
315 314 305 302 304 302 303 302 298 297 290 281 262 255 277 288 277 263 258 249 234 267 295 285 282 297 284 272 270 255 247 252 251 246 239 227 223 227 229 215 202 202 197 194 196 200 205 201 187 180 181 179 182 188 187 181 186 198 204 203 205 205 201 200 197 197 200 203 207 212 214 219 223 223 223 225 222 220 225 226 223 219 218 221 223 224 230 234
305 303 298 298 299 296 297 295 292 299 303 280 252 246 254 260 267 277 276 245 209 240 273 271 281 323 332 302 294 272 256 258 255 252 248 238 235 239 241 230 219 220 212 200 196 198 205 208 201 189 184 186 189 189 187 186 193 201 199 192 196 203 205 204 203 202 203 205 209 213 215 221 225 224 226 228 225 223 228 231 230 229 223 219 218 218 219 223
296 297 298 299 297 294 295 289 286 301 315 261 241 251 242 241 260 279 288 271 235 244 271 281 295 332 348 311 271 252 255 260 250 239 229 221 222 228 236 230 220 228 227 213 205 204 206 209 208 204 198 199 198 192 189 193 197 199 197 192 193 199 205 205 204 204 205 207 210 214 217 223 227 228 230 229 226 226 228 229 229 229 227 223 223 222 217 217
294 293 296 299 296 294 293 289 289 298 300 267 250 256 247 242 258 277 286 278 260 244 255 273 291 299 307 310 296 275 272 267 255 256 252 231 221 220 225 225 218 225 229 218 209 211 213 212 210 209 209 213 211 201 196 201 200 196 195 195 195 196 200 204 205 205 206 208 211 215 219 222 226 231 234 233 229 228 228 228 229 233 239 237 234 235 233 226
294 290 293 295 292 289 287 285 283 277 274 269 259 257 254 249 256 270 276 266 252 245 245 253 270 273 267 300 303 298 301 288 272 277 285 269 252 238 226 225 225 231 238 232 217 212 215 217 215 209 209 215 218 212 207 204 201 199 198 199 199 197 198 202 206 208 209 211 213 216 220 222 224 229 234 235 233 231 231 231 235 241 245 245 242 243 244 238
294 289 290 291 286 283 280 277 272 268 274 279 266 258 261 261 256 255 258 256 246 242 244 243 253 260 254 267 280 274 278 288 282 279 269 252 246 241 227 227 230 235 244 246 232 215 211 215 217 211 208 212 216 219 218 209 201 202 205 206 205 202 200 202 207 211 213 214 215 216 219 223 225 228 232 236 235 234 234 234 236 242 245 244 242 242 246 247
Height
5898 5897 5896 5895 5894 5892 5891 5890 5889 5889 5888 5887 5887 5886 5886 5886 5885 5885 5885 5886 5886 5886 5887 5887 5888 5888 5889 5890 5891 5892 5893 5894 5895 5896 5898 5898 5899 5900 5902 5903 5904 5905 5906 5906 5907 5908 5908 5909 5909 5909 5910 5911 5911 5910 5910 5912 5912 5911 5910 5909 5909 5908 5907 5907 5907 5906 5907 5907 5908 5910 5911 5911 5912 5913 5914 5915 5916 5917 5917 5917 5917 5917 5918 5918 5918 5918 5918 5918
5896 5895 5894 5893 5892 5891 5889 5888 5887 5887 5886 5885 5885 5884 5884 5884 5884 5883 5884 5884 5884 5885 5885 5885 5886 5887 5888 5888 5889 5890 5891 5892 5893 5895 5896 5897 5898 5899 5900 5902 5903 5904 5905 5906 5907 5907 5907 5908 5908 5909 5910 5911 5911 5910 5910 5911 5911 5910 5908 5908 5908 5907 5906 5906 5906 5906 5906 5907 5908 5909 5911 5912 5912 5914 5915 5916 5916 5917 5917 5917 5918 5918 5918 5919 5919 5918 5919 5919
5895 5894 5892 5891 5890 5889 5887 5886 5885 5884 5884 5883 5882 5882 5882 5881 5881 5881 5881 5881 5882 5882 5883 5883 5884 5885 5886 5887 5887 5888 5889 5890 5891 5893 5894 5895 5896 5898 5899 5901 5902 5903 5904 5905 5905 5906 5906 5907 5907 5908 5910 5910 5911 5911 5911 5911 5911 5909 5908 5907 5906 5906 5906 5905 5905 5905 5906 5906 5907 5909 5911 5912 5913 5914 5915 5915 5916 5917 5918 5918 5918 5919 5919 5919 5919 5919 5920 5920
5893 5892 5890 5889 5888 5886 5885 5884 5883 5882 5881 5881 5880 5880 5879 5879 5879 5879 5879 5879 5879 5880 5880 5881 5882 5883 5884 5885 5886 5886 5887 5888 5889 5891 5892 5894 5895 5896 5898 5900 5901 5902 5903 5904 5904 5905 5905 5906 5906 5907 5909 5909 5909 5911 5912 5910 5910 5909 5909 5907 5906 5906 5906 5905 5904 5904 5905 5905 5906 5908 5910 5912 5913 5914 5916 5916 5917 5918 5918 5919 5919 5919 5920 5920 5920 5921 5920 5920
5891 5890 5889 5887 5886 5884 5883 5882 5881 5880 5879 5878 5878 5877 5877 5876 5876 5876 5876 5877 5877 5877 5877 5878 5879 5880 5881 5882 5883 5884 5886 5886 5887 5889 5890 5892 5893 5894 5896 5898 5900 5901 5902 5902 5903 5904 5904 5905 5906 5907 5908 5908 5909 5911 5911 5909 5909 5909 5908 5907 5907 5906 5905 5904 5905 5903 5903 5905 5907 5909 5909 5911 5913 5914 5916 5916 5917 5918 5918 5919 5920 5920 5920 5921 5921 5921 5922 5922
5889 5888 5887 5885 5884 5882 5881 5880 5879 5878 5877 5876 5875 5875 5874 5874 5874 5874 5874 5874 5874 5874 5875 5875 5876 5877 5878 5879 5881 5882 5883 5884 5885 5887 5889 5890 5892 5893 5894 5896 5898 5899 5900 5901 5902 5903 5903 5904 5905 5906 5907 5907 5909 5911 5910 5909 5909 5910 5908 5906 5906 5906 5904 5904 5904 5903 5904 5907 5909 5910 5910 5911 5913 5914 5915 5916 5917 5917 5918 5919 5920 5920 5921 5921 5922 5922 5923 5923
5888 5886 5885 5883 5882 5881 5879 5878 5877 5876 5875 5874 5873 5872 5872 5871 5871 5871 5871 5871 5871 5871 5872 5872 5873 5874 5875 5876 5877 5879 5880 5882 5884 5886 5887 5889 5890 5891 5892 5894 5897 5898 5899 5900 5901 5901 5902 5903 5904 5905 5906 5907 5909 5911 5910 5909 5910 5910 5908 5906 5905 5905 5904 5904 5905 5906 5907 5910 5911 5910 5911 5912 5913 5914 5915 5915 5916 5917 5918 5920 5920 5921 5922 5922 5923 5923 5924 5924
5886 5885 5883 5882 5880 5879 5877 5876 5875 5873 5872 5871 5871 5870 5869 5868 5868 5868 5868 5868 5868 5868 5869 5869 5870 5871 5871 5872 5873 5875 5877 5880 5882 5883 5885 5886 5888 5889 5890 5892 5895 5896 5897 5899 5900 5900 5900 5902 5903 5904 5905 5906 5909 5910 5908 5908 5909 5909 5907 5905 5905 5905 5904 5904 5905 5906 5908 5910 5912 5911 5910 5911 5913 5915 5916 5915 5916 5918 5919 5920 5921 5921 5922 5923 5924 5924 5924 5925
5885 5883 5881 5880 5878 5877 5875 5874 5872 5871 5870 5869 5868 5867 5866 5865 5865 5865 5865 5864 5864 5865 5865 5866 5867 5867 5868 5868 5870 5872 5874 5877 5879 5880 5881 5883 5885 5887 5889 5890 5892 5894 5896 5897 5898 5898 5899 5901 5903 5904 5906 5907 5909 5908 5907 5907 5908 5908 5906 5905 5905 5905 5905 5904 5905 5905 5906 5909 5911 5911 5910 5911 5912 5915 5916 5915 5917 5918 5919 5921 5922 5922 5923 5923 5924 5925 5925 5925
5883 5881 5879 5878 5876 5874 5873 5871 5870 5869 5867 5866 5865 5864 5863 5862 5862 5861 5861 5861 5861 5861 5861 5862 5862 5863 5864 5865 5866 5869 5871 5873 5875 5877 5878 5880 5882 5885 5886 5888 5890 5892 5894 5896 5896 5896 5898 5900 5901 5903 5905 5907 5908 5907 5906 5907 5907 5907 5906 5905 5905 5905 5905 5905 5905 5905 5906 5908 5910 5911 5910 5911 5912 5915 5916 5915 5916 5918 5919 5921 5922 5922 5923 5924 5924 5925 5926 5926
5881 5879 5877 5876 5874 5872 5871 5869 5867 5866 5864 5863 5862 5861 5860 5859 5858 5858 5857 5857 5857 5857 5857 5858 5858 5859 5860 5861 5863 5865 5867 5869 5871 5873 5874 5877 5879 5882 5884 5886 5888 5890 5892 5894 5894 5894 5896 5898 5900 5902 5904 5906 5907 5907 5906 5906 5906 5907 5906 5906 5906 5905 5904 5904 5905 5905 5906 5907 5909 5911 5911 5912 5912 5915 5915 5915 5916 5917 5918 5920 5922 5923 5923 5924 5925 5925 5926 5927
5879 5877 5875 5873 5872 5870 5868 5866 5865 5863 5862 5860 5859 5858 5857 5856 5855 5854 5854 5854 5854 5854 5854 5854 5855 5855 5856 5857 5858 5860 5864 5866 5867 5869 5871 5873 5876 5879 5881 5883 5885 5888 5890 5891 5892 5893 5895 5897 5898 5900 5902 5904 5905 5906 5906 5905 5906 5906 5906 5905 5905 5906 5905 5904 5905 5906 5906 5907 5909 5911 5911 5912 5913 5915 5915 5915 5916 5917 5919 5920 5922 5923 5924 5924 5925 5925 5926 5927
5877 5875 5873 5871 5870 5868 5866 5864 5862 5861 5859 5858 5856 5855 5854 5853 5852 5851 5850 5850 5850 5850 5851 5851 5851 5852 5852 5852 5853 5855 5859 5862 5863 5864 5867 5869 5872 5875 5878 5880 5883 5885 5887 5889 5890 5892 5894 5895 5897 5900 5901 5902 5903 5904 5905 5905 5905 5905 5905 5905 5905 5906 5905 5905 5906 5907 5907 5908 5909 5910 5911 5912 5913 5915 5915 5915 5917 5918 5919 5920 5921 5923 5925 5925 5925 5925 5926 5926
5875 5873 5871 5869 5867 5865 5863 5861 5860 5858 5856 5855 5853 5852 5851 5850 5849 5848 5847 5847 5847 5847 5848 5848 5848 5849 5849 5848 5849 5850 5854 5858 5859 5860 5863 5866 5869 5872 5875 5878 5880 5883 5885 5887 5889 5890 5891 5893 5896 5899 5899 5899 5901 5903 5905 5905 5905 5905 5904 5904 5905 5906 5906 5906 5907 5908 5908 5908 5910 5911 5911 5912 5913 5915 5916 5916 5917 5918 5918 5919 5921 5923 5925 5925 5926 5926 5926 5926
5873 5871 5869 5867 5865 5863 5861 5859 5857 5856 5854 5852 5850 5849 5848 5847 5846 5845 5845 5844 5844 5844 5844 5845 5845 5845 5846 5845 5845 5847 5849 5853 5855 5856 5859 5862 5865 5868 5871 5875 5877 5880 5882 5884 5886 5888 5890 5892 5895 5897 5897 5898 5900 5902 5904 5904 5905 5905 5904 5904 5904 5905 5906 5907 5907 5908 5909 5909 5910 5911 5911 5912 5913 5914 5916 5916 5917 5918 5918 5919 5920 5922 5924 5925 5926 5927 5927 5927
5872 5869 5867 5865 5863 5861 5859 5857 5855 5853 5851 5849 5848 5846 5845 5844 5843 5843 5842 5842 5841 5841 5841 5841 5842 5842 5842 5842 5842 5843 5845 5848 5850 5852 5855 5858 5861 5865 5868 5871 5874 5877 5880 5882 5885 5887 5890 5891 5892 5894 5897 5898 5900 5902 5903 5903 5904 5904 5903 5904 5904 5905 5905 5906 5907 5908 5909 5909 5910 5911 5910 5911 5912 5914 5915 5916 5917 5918 5918 5919 5920 5921 5923 5924 5926 5927 5927 5927
5870 5868 5866 5863 5861 5859 5857 5855 5853 5851 5849 5847 5845 5844 5843 5842 5841 5840 5840 5839 5839 5838 5838 5838 5839 5839 5839 5839 5839 5839 5841 5843 5845 5847 5851 5854 5857 5861 5864 5868 5871 5874 5877 5880 5882 5885 5888 5889 5889 5892 5895 5897 5900 5902 5902 5902 5903 5902 5903 5903 5904 5905 5904 5905 5906 5908 5909 5909 5910 5910 5910 5910 5912 5913 5914 5916 5916 5917 5918 5919 5920 5921 5922 5923 5924 5926 5927 5927
5868 5866 5864 5862 5860 5857 5855 5853 5851 5849 5847 5845 5843 5842 5841 5840 5839 5838 5837 5837 5836 5836 5836 5836 5836 5836 5836 5836 5836 5836 5837 5839 5840 5843 5847 5850 5853 5856 5860 5864 5867 5871 5874 5877 5880 5883 5886 5885 5886 5889 5892 5895 5899 5901 5900 5901 5902 5902 5902 5903 5904 5904 5904 5904 5905 5907 5908 5909 5910 5910 5910 5911 5912 5913 5913 5914 5915 5916 5917 5918 5919 5920 5921 5922 5923 5925 5926 5927
5867 5865 5863 5860 5858 5856 5854 5851 5849 5847 5845 5843 5841 5840 5839 5838 5837 5836 5835 5834 5834 5834 5834 5834 5834 5834 5834 5833 5833 5833 5834 5835 5837 5839 5843 5846 5848 5853 5857 5860 5863 5867 5871 5875 5878 5881 5883 5882 5883 5887 5891 5895 5898 5899 5898 5899 5900 5901 5901 5902 5903 5904 5904 5904 5905 5907 5908 5909 5909 5910 5911 5911 5911 5912 5913 5913 5913 5915 5917 5918 5919 5920 5920 5921 5923 5924 5925 5927
5866 5864 5861 5859 5856 5854 5852 5850 5847 5845 5843 5841 5840 5839 5837 5836 5835 5834 5833 5832 5832 5832 5831 5831 5831 5831 5832 5831 5830 5830 5831 5833 5835 5837 5839 5842 5845 5849 5853 5856 5860 5864 5868 5872 5874 5878 5880 5881 5883 5887 5890 5893 5895 5896 5897 5898 5899 5900 5901 5901 5902 5903 5904 5904 5905 5906 5907 5908 5908 5908 5910 5910 5910 5911 5912 5912 5912 5913 5916 5917 5918 5919 5920 5921 5922 5923 5925 5926
5864 5862 5860 5857 5855 5853 5851 5848 5846 5844 5842 5840 5838 5837 5836 5834 5833 5832 5831 5830 5830 5830 5830 5829 5829 5830 5830 5830 5829 5829 5830 5831 5833 5835 5837 5840 5842 5845 5849 5853 5858 5862 5865 5867 5871 5875 5878 5880 5883 5887 5889 5890 5892 5893 5895 5897 5898 5900 5901 5901 5902 5902 5903 5904 5905 5906 5906 5907 5907 5907 5908 5909 5909 5910 5911 5911 5911 5912 5914 5916 5918 5919 5920 5920 5922 5923 5924 5926
5863 5861 5858 5856 5854 5851 5849 5847 5845 5842 5841 5839 5837 5836 5834 5833 5832 5832 5831 5829 5828 5828 5828 5828 5828 5828 5828 5828 5828 5828 5829 5830 5831 5833 5835 5837 5839 5842 5846 5851 5855 5859 5861 5864 5868 5872 5876 5879 5882 5885 5887 5888 5888 5891 5894 5895 5897 5899 5900 5901 5902 5902 5903 5903 5904 5905 5905 5906 5906 5906 5907 5908 5908 5909 5909 5910 5910 5912 5913 5915 5917 5919 5920 5920 5921 5922 5924 5925
5861 5859 5857 5855 5853 5850 5848 5846 5844 5842 5840 5838 5836 5835 5834 5832 5832 5831 5830 5828 5827 5827 5826 5827 5827 5827 5827 5827 5826 5827 5828 5829 5830 5831 5833 5835 5838 5840 5844 5848 5852 5855 5858 5861 5866 5871 5876 5879 5882 5883 5885 5886 5887 5890 5892 5894 5895 5898 5899 5901 5901 5901 5902 5902 5903 5904 5905 5905 5905 5905 5906 5907 5908 5908 5909 5909 5910 5911 5912 5913 5915 5917 5919 5920 5920 5921 5922 5924
5860 5858 5856 5853 5851 5849 5847 5845 5843 5841 5839 5837 5836 5834 5833 5832 5831 5831 5830 5828 5828 5827 5827 5826 5826 5825 5825 5825 5826 5826 5827 5828 5829 5830 5832 5834 5836 5839 5842 5845 5848 5852 5856 5860 5864 5869 5873 5876 5879 5881 5883 5885 5886 5888 5891 5892 5894 5897 5899 5899 5900 5900 5901 5901 5902 5903 5904 5904 5904 5904 5905 5906 5906 5907 5908 5908 5909 5910 5910 5911 5913 5915 5917 5918 5919 5921 5922 5923
5859 5857 5855 5852 5850 5848 5846 5844 5841 5839 5838 5836 5835 5835 5833 5832 5832 5831 5829 5829 5828 5827 5826 5826 5825 5825 5825 5825 5825 5826 5826 5827 5828 5829 5831 5833 5834 5837 5840 5843 5846 5851 5855 5859 5863 5866 5869 5872 5875 5878 5880 5883 5884 5886 5889 5891 5894 5896 5898 5898 5899 5900 5900 5900 5902 5903 5903 5903 5903 5903 5904 5905 5905 5906 5905 5905 5906 5908 5909 5910 5911 5913 5915 5917 5918 5920 5921 5922
5858 5856 5854 5851 5849 5846 5844 5842 5840 5838 5837 5836 5836 5835 5834 5833 5832 5831 5829 5828 5828 5827 5826 5825 5824 5824 5824 5824 5825 5825 5826 5826 5827 5828 5830 5831 5833 5836 5839 5842 5845 5848 5851 5856 5860 5864 5867 5870 5873 5875 5878 5881 5883 5885 5887 5890 5892 5894 5895 5896 5898 5899 5899 5900 5901 5902 5902 5902 5902 5903 5903 5904 5905 5904 5903 5903 5904 5907 5908 5909 5910 5911 5913 5915 5917 5918 5920 5921
5857 5855 5853 5851 5848 5846 5844 5842 5841 5839 5838 5837 5836 5834 5833 5833 5831 5830 5829 5828 5827 5826 5825 5825 5824 5824 5824 5824 5824 5825 5826 5826 5826 5828 5829 5830 5832 5835 5838 5840 5842 5845 5848 5852 5858 5862 5865 5868 5871 5873 5876 5878 5881 5883 5886 5889 5890 5890 5892 5895 5897 5897 5898 5899 5900 5900 5901 5901 5902 5902 5902 5904 5904 5904 5903 5902 5904 5907 5908 5909 5910 5910 5912 5914 5916 5917 5918 5920
5856 5854 5852 5850 5848 5846 5844 5842 5841 5839 5838 5837 5835 5834 5833 5832 5830 5829 5828 5827 5827 5826 5825 5825 5825 5825 5824 5824 5824 5825 5825 5825 5826 5827 5828 5830 5831 5834 5837 5839 5841 5843 5846 5851 5856 5860 5863 5866 5869 5872 5874 5876 5878 5882 5886 5888 5888 5889 5891 5893 5894 5896 5897 5898 5899 5899 5900 5901 5901 5901 5902 5903 5904 5904 5904 5904 5905 5907 5907 5908 5908 5909 5911 5912 5914 5916 5917 5918
5855 5854 5852 5850 5847 5845 5844 5842 5840 5839 5837 5836 5835 5834 5832 5831 5830 5829 5828 5828 5828 5827 5826 5826 5826 5826 5826 5825 5825 5825 5826 5825 5826 5826 5828 5830 5832 5834 5836 5839 5841 5843 5847 5851 5855 5857 5860 5863 5866 5869 5872 5873 5876 5881 5886 5887 5887 5888 5890 5891 5892 5894 5896 5897 5898 5899 5899 5900 5900 5901 5901 5902 5903 5904 5904 5904 5905 5906 5906 5906 5906 5907 5909 5911 5913 5915 5916 5917
5854 5853 5851 5849 5847 5845 5843 5842 5840 5839 5837 5836 5835 5833 5832 5831 5830 5829 5828 5828 5828 5827 5828 5828 5827 5827 5827 5827 5826 5826 5826 5826 5826 5827 5828 5830 5832 5834 5837 5839 5841 5844 5847 5851 5853 5856 5858 5860 5864 5867 5869 5871 5873 5879 5884 5885 5886 5887 5888 5890 5891 5892 5894 5896 5897 5897 5898 5899 5899 5900 5900 5901 5902 5903 5904 5903 5904 5904 5904 5904 5903 5904 5907 5910 5912 5913 5915 5916
5854 5852 5851 5849 5846 5844 5843 5841 5840 5838 5837 5836 5835 5834 5833 5832 5831 5830 5829 5828 5828 5828 5829 5829 5828 5828 5829 5828 5827 5826 5826 5827 5827 5827 5829 5830 5833 5835 5837 5840 5842 5845 5848 5850 5853 5855 5856 5859 5862 5864 5866 5869 5872 5878 5881 5882 5884 5885 5885 5887 5889 5891 5892 5894 5895 5896 5897 5898 5899 5900 5900 5901 5902 5903 5903 5903 5903 5903 5903 5903 5901 5902 5907 5910 5911 5912 5914 5915
5853 5851 5850 5848 5846 5844 5842 5841 5839 5838 5837 5837 5836 5834 5833 5833 5832 5830 5829 5828 5828 5828 5828 5829 5829 5829 5829 5829 5828 5827 5827 5828 5828 5828 5830 5831 5834 5836 5839 5841 5843 5845 5847 5849 5851 5853 5854 5857 5860 5862 5865 5867 5871 5876 5879 5880 5882 5883 5883 5884 5887 5889 5891 5892 5894 5895 5896 5897 5899 5900 5900 5900 5900 5901 5902 5903 5903 5903 5903 5904 5903 5904 5908 5910 5911 5912 5913 5914
5852 5850 5849 5848 5845 5844 5842 5840 5839 5838 5838 5837 5835 5834 5834 5833 5831 5830 5828 5828 5829 5829 5828 5830 5830 5829 5829 5829 5828 5828 5829 5830 5830 5830 5831 5832 5835 5838 5840 5842 5843 5845 5846 5847 5849 5851 5852 5855 5858 5861 5864 5867 5870 5875 5878 5879 5880 5881 5881 5882 5884 5886 5889 5891 5893 5894 5895 5896 5898 5899 5899 5900 5900 5899 5900 5902 5903 5903 5903 5903 5904 5906 5907 5908 5909 5911 5912 5913
5851 5850 5848 5847 5845 5843 5841 5840 5839 5839 5837 5836 5835 5834 5834 5833 5831 5829 5829 5829 5829 5829 5829 5830 5830 5830 5829 5829 5830 5830 5830 5831 5831 5832 5832 5833 5836 5839 5841 5843 5844 5845 5846 5846 5848 5850 5852 5854 5857 5861 5864 5866 5870 5874 5877 5878 5878 5879 5880 5881 5883 5886 5888 5890 5891 5892 5894 5895 5896 5897 5898 5900 5899 5899 5899 5900 5902 5902 5902 5902 5903 5904 5905 5906 5907 5908 5910 5912
5850 5849 5848 5846 5844 5842 5841 5840 5839 5838 5837 5836 5835 5834 5834 5833 5831 5830 5829 5829 5829 5830 5830 5830 5830 5830 5830 5830 5830 5831 5831 5831 5832 5833 5833 5834 5836 5838 5839 5841 5842 5843 5844 5845 5847 5849 5852 5855 5858 5861 5864 5867 5870 5872 5875 5877 5878 5879 5880 5881 5884 5886 5888 5890 5890 5890 5892 5893 5893 5896 5898 5899 5899 5898 5898 5899 5900 5900 5901 5901 5902 5903 5903 5904 5904 5906 5908 5911
5850 5848 5847 5846 5844 5842 5840 5839 5839 5838 5837 5836 5835 5834 5834 5833 5831 5830 5830 5829 5830 5830 5830 5830 5830 5830 5830 5830 5831 5832 5832 5832 5832 5833 5833 5834 5836 5836 5837 5838 5838 5840 5842 5844 5846 5848 5850 5853 5857 5860 5863 5866 5868 5870 5872 5875 5877 5878 5879 5882 5884 5885 5887 5889 5889 5889 5890 5891 5892 5894 5896 5897 5898 5898 5897 5898 5898 5899 5900 5900 5901 5901 5902 5902 5902 5903 5906 5910
5849 5847 5846 5845 5843 5841 5840 5839 5838 5837 5836 5835 5834 5834 5833 5832 5830 5830 5830 5830 5830 5830 5830 5829 5829 5830 5830 5830 5831 5833 5833 5832 5832 5832 5833 5834 5835 5836 5837 5838 5839 5840 5842 5843 5845 5847 5849 5852 5856 5859 5862 5864 5866 5868 5870 5873 5875 5876 5879 5881 5882 5883 5884 5886 5887 5888 5889 5890 5891 5893 5894 5895 5896 5897 5896 5897 5897 5899 5899 5900 5901 5901 5901 5902 5901 5901 5905 5909
5848 5846 5845 5843 5842 5841 5839 5838 5837 5836 5835 5835 5833 5833 5832 5831 5830 5830 5830 5830 5831 5831 5830 5829 5829 5829 5830 5830 5831 5832 5832 5832 5832 5832 5833 5834 5835 5835 5835 5836 5838 5839 5840 5841 5844 5847 5849 5852 5854 5856 5859 5862 5864 5865 5867 5869 5872 5874 5877 5879 5880 5881 5882 5883 5885 5886 5888 5889 5890 5892 5893 5894 5895 5896 5896 5896 5897 5898 5899 5900 5900 5900 5901 5901 5901 5901 5904 5908
5847 5845 5844 5843 5841 5839 5838 5836 5835 5835 5835 5835 5834 5832 5831 5831 5830 5830 5830 5829 5830 5830 5829 5829 5829 5829 5829 5830 5830 5830 5831 5832 5832 5832 5833 5833 5833 5834 5834 5835 5837 5838 5839 5840 5844 5847 5848 5850 5852 5853 5855 5859 5862 5864 5866 5868 5870 5872 5875 5877 5878 5879 5880 5882 5884 5885 5887 5888 5890 5891 5892 5893 5894 5895 5896 5896 5896 5897 5898 5898 5899 5899 5900 5900 5900 5902 5904 5907
5845 5843 5842 5841 5840 5838 5836 5835 5835 5835 5835 5833 5832 5831 5830 5830 5829 5829 5830 5829 5829 5829 5829 5828 5828 5828 5829 5829 5829 5829 5830 5830 5830 5830 5831 5831 5832 5832 5833 5833 5835 5837 5838 5841 5844 5846 5847 5849 5850 5851 5853 5856 5859 5861 5863 5866 5869 5871 5873 5875 5876 5877 5878 5880 5882 5883 5885 5886 5888 5890 5891 5892 5893 5894 5895 5895 5896 5896 5896 5896 5897 5898 5899 5899 5900 5901 5903 5905
5844 5842 5840 5839 5838 5837 5835 5835 5835 5834 5832 5831 5830 5830 5829 5829 5829 5829 5829 5829 5829 5829 5828 5827 5827 5828 5829 5829 5829 5829 5829 5829 5830 5829 5830 5830 5831 5831 5832 5832 5834 5835 5838 5841 5844 5845 5846 5848 5848 5849 5851 5853 5856 5859 5860 5863 5866 5868 5872 5874 5875 5876 5877 5878 5880 5882 5883 5885 5886 5888 5889 5890 5891 5893 5894 5895 5895 5895 5895 5895 5896 5897 5897 5898 5899 5900 5901 5903
5843 5841 5839 5838 5836 5835 5834 5834 5833 5832 5831 5830 5829 5829 5828 5828 5828 5828 5828 5829 5828 5828 5827 5827 5827 5828 5829 5828 5828 5828 5828 5829 5829 5828 5828 5829 5830 5831 5831 5832 5834 5836 5838 5840 5842 5844 5846 5847 5847 5849 5851 5852 5854 5857 5860 5862 5863 5866 5870 5872 5873 5874 5875 5877 5879 5880 5882 5883 5884 5885 5886 5888 5890 5890 5892 5893 5894 5894 5894 5894 5895 5895 5896 5897 5898 5899 5900 5901
5842 5840 5838 5837 5835 5834 5833 5833 5832 5830 5830 5830 5829 5828 5827 5827 5827 5827 5827 5828 5827 5827 5826 5826 5826 5827 5827 5827 5827 5827 5827 5828 5828 5827 5827 5828 5830 5831 5830 5831 5834 5836 5837 5839 5841 5843 5845 5846 5847 5849 5850 5852 5854 5856 5858 5861 5863 5865 5867 5867 5867 5869 5871 5874 5876 5878 5880 5880 5881 5882 5884 5886 5888 5888 5889 5890 5891 5892 5892 5892 5893 5894 5895 5896 5897 5898 5899 5900
5840 5838 5837 5836 5835 5833 5832 5831 5830 5829 5829 5828 5827 5826 5826 5826 5826 5826 5826 5826 5826 5826 5826 5825 5825 5825 5825 5825 5826 5825 5825 5826 5827 5826 5826 5826 5829 5830 5830 5831 5833 5835 5836 5838 5839 5841 5844 5845 5847 5849 5850 5852 5854 5855 5857 5859 5861 5861 5860 5859 5860 5863 5868 5871 5873 5875 5877 5878 5879 5880 5882 5884 5885 5886 5886 5887 5888 5888 5889 5890 5891 5892 5893 5893 5895 5895 5896 5897
5838 5837 5836 5834 5834 5832 5831 5830 5829 5828 5827 5827 5826 5825 5825 5825 5825 5825 5825 5825 5825 5825 5825 5824 5823 5823 5823 5824 5824 5824 5823 5824 5825 5825 5825 5826 5827 5828 5829 5831 5833 5834 5835 5836 5837 5840 5842 5844 5846 5848 5848 5849 5851 5853 5854 5855 5858 5857 5854 5854 5857 5862 5866 5868 5869 5872 5874 5876 5877 5879 5880 5881 5881 5882 5883 5884 5885 5886 5887 5888 5889 5890 5891 5892 5893 5894 5895 5895
5836 5835 5834 5832 5831 5830 5830 5828 5827 5826 5825 5825 5824 5824 5823 5824 5824 5824 5824 5824 5824 5824 5823 5823 5822 5822 5823 5823 5823 5823 5823 5823 5824 5823 5824 5825 5826 5826 5827 5829 5831 5832 5833 5835 5836 5839 5841 5841 5843 5844 5845 5847 5849 5850 5850 5851 5853 5851 5849 5852 5857 5860 5864 5866 5868 5870 5872 5874 5876 5876 5876 5876 5877 5880 5882 5883 5884 5885 5886 5887 5888 5888 5889 5890 5892 5893 5893 5893
5833 5833 5832 5830 5829 5829 5828 5827 5825 5824 5824 5823 5823 5823 5822 5822 5822 5822 5822 5822 5823 5823 5822 5822 5821 5821 5822 5821 5822 5822 5822 5822 5823 5822 5823 5824 5825 5826 5827 5828 5829 5830 5830 5832 5834 5836 5838 5839 5841 5842 5844 5846 5848 5847 5847 5849 5848 5845 5846 5852 5856 5858 5861 5864 5866 5868 5870 5872 5873 5873 5874 5874 5876 5878 5880 5881 5883 5884 5885 5887 5888 5888 5888 5888 5889 5890 5891 5892
5831 5830 5830 5829 5828 5827 5827 5825 5823 5823 5824 5823 5822 5822 5821 5821 5820 5819 5820 5821 5821 5821 5820 5820 5821 5821 5821 5821 5820 5821 5821 5821 5822 5821 5822 5823 5824 5825 5826 5827 5829 5828 5829 5830 5832 5834 5836 5838 5840 5841 5842 5843 5843 5843 5844 5845 5843 5842 5847 5852 5854 5855 5858 5861 5864 5866 5867 5869 5870 5871 5872 5874 5875 5876 5878 5880 5881 5882 5884 5885 5886 5887 5887 5887 5887 5887 5888 5889
5829 5828 5827 5827 5826 5825 5824 5823 5821 5821 5822 5822 5821 5820 5820 5819 5818 5818 5819 5819 5820 5820 5818 5818 5819 5820 5820 5820 5819 5819 5819 5820 5821 5820 5821 5822 5822 5822 5823 5826 5827 5827 5827 5828 5831 5833 5834 5836 5838 5839 5840 5840 5839 5840 5841 5840 5839 5843 5848 5851 5852 5854 5856 5858 5860 5862 5864 5866 5867 5869 5871 5872 5872 5874 5875 5877 5879 5881 5882 5883 5884 5885 5885 5886 5886 5886 5886 5887
5826 5825 5825 5825 5824 5823 5822 5821 5820 5819 5819 5819 5819 5818 5819 5818 5816 5817 5817 5818 5818 5818 5817 5817 5818 5818 5819 5818 5818 5818 5818 5819 5819 5819 5820 5821 5820 5820 5821 5823 5824 5824 5824 5826 5828 5830 5831 5833 5835 5837 5839 5837 5835 5837 5838 5836 5836 5840 5844 5847 5849 5851 5852 5855 5858 5860 5861 5863 5865 5866 5868 5869 5870 5870 5871 5874 5876 5878 5879 5880 5881 5881 5882 5883 5884 5885 5886 5886
5824 5823 5823 5822 5821 5821 5820 5819 5818 5818 5817 5817 5817 5816 5816 5816 5815 5816 5816 5816 5816 5816 5816 5817 5816 5816 5817 5817 5817 5817 5817 5817 5818 5818 5819 5820 5819 5820 5820 5821 5821 5822 5822 5823 5826 5827 5829 5831 5832 5834 5835 5833 5833 5835 5834 5834 5836 5839 5842 5844 5847 5849 5850 5852 5854 5857 5859 5860 5862 5863 5864 5865 5867 5867 5868 5870 5872 5874 5876 5877 5878 5878 5879 5880 5881 5883 5884 5884
5821 5821 5820 5820 5819 5818 5818 5817 5816 5815 5815 5816 5815 5813 5813 5813 5814 5814 5814 5813 5814 5814 5814 5815 5814 5814 5816 5816 5816 5816 5817 5816 5816 5817 5817 5818 5818 5819 5819 5819 5819 5820 5820 5821 5823 5824 5826 5827 5828 5830 5831 5831 5832 5833 5832 5832 5836 5838 5839 5842 5846 5848 5850 5850 5852 5854 5855 5857 5859 5860 5861 5862 5864 5865 5865 5867 5869 5872 5873 5875 5876 5877 5877 5877 5878 5879 5881 5881